カタログに戻る

STARLINK-35752

運用中通信VLEO
NORAD 66275·PAYLOAD·🇺🇸 United States

打ち上げ Oct 31, 2025 から Vandenberg Space Force Base

Loading…

次のパス (今後24時間)

TLE

最新Source: CelesTrak SupGP

元期: Sep 14, 2026, 22:58 UTC

1 66275C 25247L   26257.95743056 -.00004905  00000+0 -14494-3 0  2578
2 66275  53.1596  29.5270 0001159  79.5179 175.5501 15.34385685    19

AllMySatでSTARLINK-35752をリアルタイム追跡

Download on the App Store